Regional Weather Roundup
Issued by NWS

Home | Current Version | Previous Version | Graphics & Text | Print | Product List | Glossary On
Versions: 1 2 3 4 5 6 7 8 9 10 11 12 13 14 15 16 17 18 19 20 21 22 23 24 25 26 27 28 29 30 31 32 33 34 35 36 37 38 39 40 41 42 43 44 45 46 47 48 49 50
000
ASUS43 KOAX 290102
RWRNE

WEATHER ROUNDUP FOR NEBRASKA
NATIONAL WEATHER SERVICE OMAHA NE
700 PM CST FRI NOV 28 2014

NOTES: SATELLITE DATA IS BEING USED TO AUGMENT CLOUD COVER ABOVE
       12000 FEET.
       "FAIR" INDICATES FEW OR NO CLOUDS BELOW 12,000 FEET WITH NO
       SIGNIFICANT WEATHER AND/OR OBSTRUCTIONS TO VISIBILITY.

  * THESE STATIONS DO NOT REPORT WEATHER SUCH AS RAIN...SNOW OR FOG.

NEZ001>004-019>022-054>056-290200-
NEBRASKA PANHANDLE

CITY           SKY/WX    TMP DP  RH WIND       PRES   REMARKS
SCOTTSBLUFF    CLOUDY    44  22  41 N3        29.73S
ALLIANCE       MOCLDY    49  19  30 W12       29.70F
CHADRON        PTCLDY   N/A N/A N/A SW10      29.63F
SIDNEY         CLOUDY    51  18  27 W10       29.77S
$$

NEZ057>060-069>072-079>082-290200-
SOUTHWEST NEBRASKA

CITY           SKY/WX    TMP DP  RH WIND       PRES   REMARKS
NORTH PLATTE   MOCLDY    40  21  46 NW6       29.70S
IMPERIAL       CLOUDY    48  18  30 W3        29.73S
LEXINGTON      MOCLDY    51  17  25 W9        29.68F
MCCOOK         MOCLDY    57  11  16 W9        29.70F
$$

NEZ005>010-023>029-035>040-094-290200-
NORTH CENTRAL NEBRASKA

CITY           SKY/WX    TMP DP  RH WIND       PRES   REMARKS
VALENTINE      CLOUDY    42  27  55 CALM      29.59F
BROKEN BOW     MOCLDY    43  19  38 CALM      29.66S
ORD            CLOUDY    46  22  38 S5        29.63S
$$

NEZ041-046>049-061>064-073>077-083>087-290200-
SOUTH CENTRAL NEBRASKA

CITY           SKY/WX    TMP DP  RH WIND       PRES   REMARKS
GRAND ISLAND   CLOUDY    53  24  32 SW10      29.65F
AURORA         CLOUDY    48  29  49 W5        29.65S
HASTINGS       CLOUDY    58  20  22 MISG      29.66S
KEARNEY *      CLOUDY    57  19  23 SW5       29.69S
YORK           CLOUDY    48  32  53 SW9       29.65S
$$

NEZ011>018-030>034-042>045-290200-
NORTHEAST NEBRASKA

CITY           SKY/WX    TMP DP  RH WIND       PRES   REMARKS
NORFOLK        CLOUDY    45  31  58 SE3       29.61F
BLAIR          CLOUDY    48  32  53 SE9       29.64F
COLUMBUS *     CLOUDY    39  25  56 E3        29.64S
TEKAMAH        MOCLDY    38  27  64 SE8       29.65F WCI  32
$$

NEZ050>053-065>068-078-088>093-290200-
SOUTHEAST NEBRASKA

CITY           SKY/WX    TMP DP  RH WIND       PRES   REMARKS
LINCOLN        MOCLDY    52  32  46 S12       29.66F
OMAHA EPPLEY   CLOUDY    44  32  62 S8        29.67F
FALLS CITY     MOCLDY    45  32  60 SE6       29.71F
PLATTSMOUTH    MOCLDY    48  30  50 SE9       29.66F
$$

NEZ044-045-051>053-067-290200-
OMAHA AREA

CITY           SKY/WX    TMP DP  RH WIND       PRES   REMARKS
OMAHA EPPLEY   CLOUDY    44  32  62 S8        29.67F
BLAIR          CLOUDY    48  32  53 SE9       29.64F
OFFUTT AFB     CLOUDY    42  31  65 E7        29.66F
PLATTSMOUTH    MOCLDY    48  30  50 SE9       29.66F
$$


USA.gov is the U.S. government's official web portal to all federal, state and local government web resources and services.